GFSCGP_700_spd_000.txt.gz
Wind_Speed
28 29 33 29 22 19 21 21 25 26 23 25 26 26 29 25 23 26 25 24 20 18 20 20 25 22 24 25 23 17 19 19 19 18 17 14 12 11 7 7 6 5 4 11
27 37 32 23 18 19 21 22 26 24 22 21 24 25 23 13 17 22 26 25 22 19 18 18 23 19 21 22 19 15 18 18 18 18 21 20 13 10 11 13 8 20 17 12
31 34 30 25 21 21 23 24 23 25 25 27 24 25 22 19 21 23 27 25 26 21 17 17 20 16 19 19 16 13 17 17 16 18 18 19 21 15 16 25 18 21 24 18
31 27 30 29 27 23 26 20 20 25 26 25 23 15 22 19 21 20 17 21 25 19 16 16 18 14 16 16 13 12 12 16 15 16 18 22 25 19 17 20 19 24 22 23
37 30 26 27 24 24 26 23 24 26 29 23 21 15 12 17 19 17 26 28 21 17 14 16 16 11 13 12 10 10 10 14 15 17 17 23 23 24 18 23 24 19 20 21
35 29 31 26 22 24 20 21 19 21 17 4 16 18 9 17 18 24 23 18 16 11 10 12 12 9 10 9 8 7 7 13 13 14 14 15 19 22 17 9 3 20 16 16
33 35 31 26 25 24 19 18 7 5 1 6 11 8 17 21 19 20 24 23 12 8 7 9 9 7 8 6 5 5 6 10 10 11 11 10 15 18 20 17 12 12 8 15
35 25 37 34 33 25 23 17 9 6 3 6 10 7 18 19 18 21 19 17 9 3 5 6 8 5 6 5 4 2 7 7 8 8 7 6 8 13 15 17 19 16 20 23
31 34 33 31 32 26 21 22 21 18 18 3 9 19 23 14 19 23 20 8 9 4 2 5 8 4 4 4 3 1 6 7 7 6 6 4 4 8 12 13 17 16 18 20
35 15 29 31 29 28 27 24 15 9 2 4 5 7 18 25 21 19 15 12 9 12 4 5 7 5 2 3 1 3 7 6 7 6 5 4 4 5 8 11 13 16 19 20
40 33 16 25 37 33 28 26 26 23 12 5 3 10 16 14 19 13 14 8 9 9 6 6 6 6 3 2 3 2 5 7 7 6 5 5 5 5 8 11 12 12 13 14
41 32 26 30 23 25 25 31 29 25 10 9 13 25 11 11 15 14 12 5 10 12 9 8 7 8 4 4 4 2 3 6 6 6 5 6 6 7 10 11 12 13 14 16
44 29 26 23 31 34 30 27 28 30 29 23 13 20 13 9 16 16 12 7 12 17 15 9 7 9 6 5 6 3 3 5 7 7 6 6 7 8 9 11 12 13 17 17
35 42 40 33 29 25 29 31 29 26 27 24 29 26 19 20 23 14 13 10 11 11 14 7 8 10 10 7 7 6 5 4 7 8 7 6 7 8 8 10 12 14 15 14
27 38 42 40 37 35 36 37 35 36 34 28 26 25 25 26 21 15 14 9 13 14 12 13 7 7 13 10 8 8 6 6 6 7 9 9 8 8 8 9 10 12 15 15
28 23 18 25 37 36 33 38 41 39 36 35 32 31 26 23 17 15 15 17 15 16 13 12 15 11 13 14 10 9 8 8 6 7 8 7 7 7 9 11 12 12 12 13
23 22 22 20 25 30 42 41 38 40 39 37 38 31 25 22 20 15 16 24 21 12 14 8 9 10 11 15 14 10 10 9 9 7 6 6 8 7 8 10 13 14 14 13
20 14 11 8 22 10 28 32 37 40 37 36 34 30 26 24 23 21 21 23 13 15 11 10 8 8 12 14 18 15 13 11 11 11 9 7 8 9 8 9 10 12 14 15
23 19 11 11 24 14 21 18 24 28 35 31 30 29 27 22 23 26 23 24 19 14 15 11 11 8 9 12 18 20 17 15 13 14 13 12 11 10 10 11 13 14 15 16
34 29 26 17 11 11 26 19 22 16 33 27 27 27 22 25 23 32 20 20 19 19 20 17 16 14 14 14 16 23 22 18 15 14 16 15 15 14 14 13 13 13 14 15
37 35 35 32 18 18 17 20 20 27 22 24 22 19 26 30 27 26 21 18 11 18 22 20 21 17 14 15 15 21 26 22 15 16 16 18 17 17 17 17 15 15 15 15
36 35 33 34 30 15 21 21 30 21 24 19 11 16 11 14 13 16 16 17 11 19 24 19 23 22 19 17 19 14 25 24 21 19 18 18 20 21 21 20 18 16 15 15
39 39 40 36 39 8 13 21 17 14 17 17 17 16 15 17 23 19 17 16 11 15 20 24 21 28 24 22 21 15 10 24 26 24 21 21 21 21 22 23 22 21 19 18
39 32 29 34 33 38 17 12 19 20 19 15 13 16 19 18 20 25 30 31 27 25 23 23 26 30 27 24 19 12 12 14 22 25 25 24 24 23 23 24 25 24 23 22
38 36 40 37 20 23 29 24 22 13 12 19 24 24 25 21 19 22 26 29 32 31 26 26 24 29 28 28 23 19 19 18 16 15 18 24 26 25 25 25 24 23 23 22
38 42 42 45 45 30 22 24 21 23 24 26 27 30 27 25 22 20 21 22 31 36 31 30 28 28 30 34 32 31 27 26 24 23 20 17 17 21 25 27 27 27 25 22

GFSCGP_700_spd_003.txt.gz
Wind_Speed
36 36 38 33 29 20 16 15 14 15 17 23 24 19 23 18 19 15 14 18 22 22 19 16 18 23 21 21 22 17 17 16 15 19 23 19 16 13 13 9 19 3 7 11
34 41 36 30 25 18 16 14 13 17 20 20 22 26 23 14 15 17 18 19 22 24 19 16 16 21 20 19 19 16 15 15 14 19 22 22 18 20 20 16 15 18 10 6
41 32 32 29 28 21 18 17 15 19 20 21 24 22 13 13 14 17 18 19 19 22 20 16 15 18 17 17 17 14 13 13 13 18 24 22 16 20 21 21 25 30 22 16
36 35 26 28 28 24 18 17 18 17 18 16 16 11 16 12 16 15 17 18 19 20 17 14 14 16 14 14 15 12 10 11 13 20 23 23 19 17 21 20 22 28 25 20
38 34 31 29 29 23 19 21 17 19 19 18 11 7 13 16 13 9 11 16 20 15 11 12 12 14 11 11 12 10 8 10 12 16 21 21 18 11 16 14 12 13 17 17
33 28 26 25 22 20 16 16 17 18 13 5 10 9 9 10 12 13 10 13 13 9 8 7 8 10 8 9 8 7 5 9 10 14 16 18 18 16 13 8 1 4 6 11
34 35 31 24 21 21 23 16 8 5 5 6 7 5 12 10 13 12 13 15 12 10 9 3 4 7 6 7 5 5 2 8 9 10 13 13 15 16 22 15 13 10 11 18
31 23 38 28 28 21 21 20 13 4 4 8 8 6 10 19 14 11 14 12 6 14 9 4 3 4 5 5 4 1 2 6 7 6 8 8 11 14 16 16 24 23 15 22
33 31 19 34 28 27 21 19 17 14 11 6 6 10 17 8 13 11 12 6 10 10 7 6 3 3 3 3 3 1 2 5 6 5 6 6 7 10 14 19 19 24 28 24
23 14 33 25 26 30 30 20 12 8 5 7 5 5 14 18 12 9 6 1 10 8 6 6 3 3 2 1 1 1 3 5 6 6 4 5 7 8 11 15 18 21 19 16
40 24 18 28 35 30 21 23 18 13 10 7 8 8 11 9 12 8 6 4 7 8 6 4 6 5 3 1 0 1 2 4 5 6 5 6 7 9 12 12 14 15 13 15
49 32 32 25 21 22 28 27 26 22 12 10 13 19 16 10 10 10 11 2 10 14 9 2 7 5 4 3 1 1 2 5 5 5 4 6 8 10 12 13 10 14 16 14
43 32 26 26 23 25 37 35 31 26 21 19 16 14 10 7 10 12 10 3 9 15 12 1 8 6 7 5 3 2 1 2 5 6 5 6 9 11 11 13 13 15 16 16
46 37 47 35 27 28 24 27 29 26 19 18 22 20 19 13 13 13 14 4 11 13 13 4 7 6 10 6 5 4 3 1 3 7 7 7 9 11 11 14 19 19 19 17
37 45 40 39 29 21 33 30 32 33 26 22 19 21 17 14 14 14 12 5 11 14 10 6 4 3 11 8 6 6 4 3 2 5 8 8 8 10 11 14 17 19 19 18
36 30 35 30 32 33 33 31 30 34 30 32 25 25 19 18 15 10 9 12 6 12 12 9 9 4 1 11 7 6 5 4 3 3 5 7 9 10 11 12 15 17 17 15
41 33 27 29 29 35 38 43 36 35 31 30 26 25 23 24 19 12 6 14 11 9 11 10 9 6 4 6 12 6 7 5 5 4 3 5 8 10 11 10 11 13 15 16
33 32 27 17 21 12 17 26 35 35 31 28 28 22 20 22 20 15 17 14 17 14 11 12 11 9 7 5 14 14 9 7 7 6 5 6 9 11 12 12 12 13 14 14
29 27 20 15 20 15 22 15 22 29 31 28 27 24 21 21 22 22 21 19 18 17 14 12 11 9 10 6 9 17 13 11 8 8 8 7 9 12 12 13 13 14 15 15
25 20 19 20 13 18 19 16 18 14 22 20 19 26 23 23 24 24 17 22 20 20 20 14 13 12 12 11 9 14 18 14 11 10 11 10 10 12 14 14 14 15 17 18
26 21 21 18 10 16 16 21 20 24 14 18 21 16 21 25 19 12 19 23 18 19 20 22 21 16 11 12 11 9 16 18 13 14 14 14 14 13 15 15 14 13 14 15
22 20 21 16 13 16 16 24 33 22 18 14 10 13 15 10 14 18 22 25 19 21 22 28 25 21 18 18 14 11 12 17 20 17 16 16 18 17 16 15 14 12 12 13
22 26 33 23 29 11 13 28 21 17 18 17 14 13 11 13 12 16 24 32 23 23 20 26 26 24 23 21 18 14 9 18 24 23 19 19 19 19 19 18 16 15 14 14
32 23 35 30 45 29 19 18 21 23 26 19 15 16 18 17 20 24 23 25 24 20 16 21 28 24 23 25 22 13 14 13 23 26 24 23 22 21 22 22 21 20 19 18
38 35 32 38 35 23 33 22 19 17 18 19 18 18 15 15 21 27 25 26 27 27 24 18 20 23 23 26 25 18 18 18 17 24 25 25 24 23 22 22 21 21 21 21
26 40 32 36 26 21 31 29 28 26 24 23 17 16 19 21 24 26 24 23 26 32 36 29 25 24 24 24 26 26 21 19 18 19 19 20 23 25 24 23 23 23 24 24

GFSCGP_700_spd_006.txt.gz
Wind_Speed
32 32 38 36 29 23 20 18 19 18 16 16 20 23 23 23 22 19 14 13 14 15 19 18 15 16 19 19 20 19 16 11 16 18 16 15 17 16 18 15 10 2 10 10
26 38 35 28 25 24 22 21 23 19 17 16 20 24 25 25 19 17 16 17 17 18 20 18 14 15 17 17 17 16 13 9 13 18 16 14 16 18 27 26 22 7 6 9
36 31 29 28 27 25 26 24 21 19 17 19 20 24 19 14 14 16 15 16 18 18 18 18 14 13 15 15 14 13 10 8 14 15 15 13 18 17 18 20 23 21 12 11
33 26 29 30 29 27 28 22 20 19 18 18 9 22 18 15 13 15 17 12 13 16 20 16 12 11 12 12 11 10 8 5 11 14 14 14 16 14 14 13 18 20 14 11
37 31 31 28 29 26 25 19 18 18 18 17 19 13 15 12 9 8 9 10 11 16 14 13 11 10 10 9 8 6 6 5 7 11 12 10 13 12 11 8 9 10 14 15
31 27 28 27 22 21 17 16 15 14 16 16 18 14 14 6 6 7 6 10 14 16 13 12 8 6 7 7 5 3 4 4 5 8 12 15 14 18 13 7 8 5 10 12
34 31 27 24 23 21 22 17 15 12 12 12 6 9 15 10 9 9 8 11 14 13 13 10 6 5 5 6 4 1 3 4 4 4 8 12 14 18 18 13 12 16 17 11
36 37 34 28 30 24 25 24 18 10 11 11 9 8 6 5 4 6 8 10 12 9 13 7 5 4 4 4 2 1 3 4 4 2 3 7 11 17 19 24 21 21 23 17
38 35 32 33 31 28 21 26 22 21 19 11 17 8 11 3 6 7 7 7 5 16 10 6 3 5 4 3 1 3 3 5 4 3 1 3 7 12 15 20 21 19 16 20
19 30 24 31 28 29 29 21 17 19 14 13 10 9 10 4 4 3 5 5 12 13 6 5 5 7 5 3 2 3 3 3 5 3 3 1 4 7 11 12 14 16 15 15
27 22 33 24 34 33 29 29 26 21 22 12 9 8 4 4 4 4 3 5 11 12 7 4 3 8 6 4 4 3 4 4 3 4 4 4 3 8 10 12 11 11 13 17
48 25 24 34 28 32 31 32 30 21 20 18 16 16 4 6 6 2 3 5 9 15 9 4 1 9 7 5 4 3 4 5 4 3 4 5 5 9 9 10 8 9 10 11
43 31 28 21 21 28 36 33 30 30 24 24 16 16 8 5 6 6 4 2 10 18 11 6 1 10 9 7 5 5 3 4 4 4 4 7 8 9 9 10 10 13 11 11
45 33 44 38 35 30 30 32 32 33 32 27 27 21 15 11 10 11 6 6 9 21 12 6 2 9 11 9 8 6 4 4 3 4 5 8 8 7 8 14 13 12 12 11
37 43 36 38 32 28 31 32 34 36 35 30 23 22 19 14 12 11 9 9 14 18 17 10 3 4 12 10 9 7 5 4 4 4 6 8 10 9 10 14 14 13 12 12
35 28 32 30 35 29 29 32 32 35 35 32 26 22 15 14 13 13 12 10 14 15 14 14 9 5 9 11 8 8 7 6 5 4 5 8 10 11 13 15 16 16 13 12
36 32 25 34 30 29 34 37 35 34 35 33 34 27 21 18 17 16 11 10 15 15 16 14 11 8 6 11 11 8 6 7 7 5 4 7 10 13 14 16 18 17 17 16
33 34 27 25 25 20 36 33 35 34 31 30 30 25 23 21 18 17 17 14 12 16 15 16 17 16 13 11 15 12 8 6 8 7 5 6 9 13 15 16 16 17 17 17
32 35 26 24 30 13 20 19 32 38 36 30 27 27 24 19 17 20 21 19 16 15 14 15 12 17 18 12 16 15 11 7 7 9 8 8 10 12 14 16 16 16 15 15
35 33 34 23 25 27 18 17 14 19 31 27 28 27 25 21 21 23 22 22 20 18 21 19 17 13 16 16 13 16 14 10 8 10 11 9 10 12 13 14 15 16 17 16
22 25 34 27 26 20 15 25 20 25 16 18 23 26 24 29 29 13 14 17 20 23 21 20 19 16 10 10 11 12 16 14 11 11 13 13 11 12 14 15 15 16 17 18
25 24 28 29 22 16 20 19 28 19 12 13 16 17 22 23 24 21 18 14 23 25 22 24 22 22 18 16 11 12 13 17 17 14 14 16 15 13 14 14 15 15 16 17
28 31 28 27 26 11 18 15 22 17 15 14 11 12 19 19 17 16 19 21 28 26 22 23 23 26 24 20 16 11 12 20 22 18 16 17 18 17 16 16 15 15 14 15
22 18 19 18 23 15 11 19 20 19 17 15 20 13 15 20 17 14 23 30 35 27 23 25 24 28 28 23 18 11 17 16 21 23 21 19 18 20 20 20 19 18 16 16
30 23 22 21 22 15 22 21 17 23 25 24 19 17 21 18 17 17 24 30 36 32 26 23 23 28 28 26 23 22 20 20 20 23 26 23 21 20 20 20 19 18 18 16
25 31 32 29 19 27 22 18 21 22 23 23 22 20 16 14 14 15 25 26 28 31 31 26 20 24 24 26 23 27 23 22 21 20 26 27 25 22 21 20 20 20 21 20

GFSCGP_700_spd_009.txt.gz
Wind_Speed
30 31 39 41 38 31 27 25 21 18 14 19 20 24 26 25 26 27 25 22 19 19 18 18 17 16 17 19 19 20 17 11 11 11 8 10 10 17 23 23 13 5 9 7
30 42 36 31 32 32 30 26 25 22 19 19 22 27 27 27 26 24 23 20 19 20 19 18 16 15 15 17 16 17 14 8 9 11 8 7 8 13 17 24 19 9 3 10
43 33 31 33 32 32 30 27 25 22 20 19 20 31 25 18 20 18 14 18 16 18 18 17 17 14 14 15 14 14 11 5 9 9 9 10 11 12 12 14 19 14 4 9
38 32 29 34 35 32 31 25 23 21 21 23 19 24 21 18 14 14 15 16 15 16 15 16 16 12 13 13 12 11 8 4 6 9 8 12 14 15 13 10 11 9 10 6
43 34 37 33 36 31 30 21 21 20 21 24 24 19 23 16 14 9 8 13 13 14 15 17 13 11 12 11 10 8 6 4 3 8 12 15 16 16 10 9 8 6 8 8
38 32 31 34 29 28 23 23 19 18 19 21 24 22 24 14 4 7 6 7 10 17 19 18 12 10 12 8 8 6 4 4 1 4 10 15 19 15 12 7 5 7 7 8
36 40 33 28 29 27 25 21 18 15 17 14 19 16 16 15 10 10 7 7 10 16 17 13 10 10 10 6 6 5 4 4 1 4 8 14 17 20 18 12 10 6 8 9
39 40 39 34 36 33 29 28 20 15 13 14 12 9 8 6 7 9 8 8 14 17 13 11 9 9 8 6 5 6 5 4 3 4 5 9 12 15 16 11 11 15 12 13
40 38 37 37 33 34 30 33 29 26 23 16 10 9 12 9 8 6 7 9 13 11 12 10 7 9 8 6 4 6 6 5 3 5 4 5 6 7 10 14 12 13 13 13
24 29 31 39 30 34 33 23 28 27 17 16 16 12 7 9 6 3 5 6 9 11 12 5 7 9 8 5 4 5 6 4 4 4 4 3 3 2 5 9 11 13 10 13
36 28 35 36 42 38 37 33 28 23 23 11 10 11 9 9 6 4 4 7 8 12 10 3 7 9 8 5 4 4 6 3 1 4 3 2 2 2 2 6 10 11 15 12
48 25 30 42 38 34 37 38 33 21 23 21 19 6 6 8 9 7 6 7 9 15 12 5 8 9 8 6 2 3 5 4 2 2 1 2 2 2 1 1 6 8 13 18
46 34 32 33 32 35 37 36 33 31 23 21 16 19 12 9 11 9 7 8 9 18 16 9 8 10 8 7 4 2 3 4 3 3 1 2 4 4 2 2 3 9 14 18
48 39 41 31 42 36 35 38 36 32 33 26 25 20 12 13 12 12 9 11 15 20 19 11 5 11 9 8 7 4 2 3 4 4 3 4 4 3 4 6 6 9 12 14
49 48 41 39 28 32 34 37 39 38 35 33 26 24 21 16 12 13 12 12 14 21 23 16 6 9 11 9 8 6 3 3 4 4 5 5 4 4 9 10 9 9 14 15
44 50 38 38 35 32 33 34 36 38 35 33 29 24 17 16 16 13 14 10 14 21 24 20 10 7 12 9 8 7 5 5 5 6 5 7 6 7 9 10 12 11 12 15
41 45 44 35 35 37 35 38 38 35 34 34 33 30 19 15 19 15 14 13 14 19 24 22 12 9 7 12 9 7 6 6 6 5 5 7 9 8 10 10 12 11 10 11
46 41 33 38 34 29 39 36 32 34 32 32 31 28 25 23 19 18 18 17 15 20 24 24 17 15 12 12 14 11 8 7 7 6 5 6 10 12 12 12 11 10 9 8
47 42 30 29 34 25 34 26 35 35 33 31 30 29 27 22 21 21 19 20 17 18 22 24 20 18 18 14 15 14 10 8 9 8 7 6 8 11 13 14 14 13 12 11
36 42 35 32 23 27 35 31 22 29 36 29 29 28 26 24 25 22 19 20 19 18 19 24 24 19 22 20 16 17 13 10 9 10 9 8 8 10 12 14 15 14 13 12
36 39 40 33 28 27 33 22 20 30 31 30 30 29 26 28 24 16 16 22 22 19 20 23 25 16 8 14 15 17 17 13 11 13 13 11 10 10 11 13 14 14 15 14
39 39 38 38 30 21 30 24 29 22 8 22 27 27 25 25 23 20 13 18 20 21 21 25 25 20 16 13 10 11 17 18 15 13 15 15 13 12 13 13 14 15 15 15
42 42 38 39 34 28 22 26 27 17 17 17 17 18 22 21 20 23 22 21 20 23 24 24 25 24 24 18 13 9 10 19 20 17 15 17 16 15 16 15 15 15 16 16
29 37 32 32 26 22 23 22 20 19 18 16 15 17 20 19 20 21 22 18 19 24 25 25 25 28 26 23 16 15 16 15 21 22 19 17 18 19 18 19 18 17 17 17
28 11 26 31 25 25 22 25 16 24 21 17 20 15 14 19 19 19 18 18 21 24 24 26 24 24 24 27 25 22 22 18 15 19 23 21 19 20 20 19 17 17 17 16
17 14 18 25 21 19 19 19 18 18 20 16 14 15 14 15 17 15 14 16 21 25 23 22 21 22 24 25 31 28 25 25 19 16 17 25 24 21 21 22 22 21 20 19

GFSCGP_700_spd_012.txt.gz
Wind_Speed
31 32 41 39 40 34 30 30 31 29 21 14 21 26 19 20 22 28 29 27 25 25 26 31 21 22 19 18 19 23 21 19 14 16 13 10 10 14 19 21 21 9 6 8
32 45 35 32 31 33 35 33 31 26 22 20 21 23 21 26 31 26 23 22 22 24 25 31 24 19 17 16 17 20 19 16 14 14 9 10 14 17 17 16 17 15 3 8
44 41 33 32 32 34 35 35 31 29 22 22 23 23 23 30 23 22 22 19 13 20 23 27 22 18 17 15 16 18 16 14 11 12 10 14 17 19 18 15 11 12 6 6
43 33 34 34 36 33 36 30 28 25 22 22 20 21 23 23 22 15 14 16 19 21 24 24 19 18 16 14 15 15 13 12 8 10 13 16 20 16 14 11 9 9 9 6
49 38 37 41 35 34 35 26 27 23 23 24 22 21 27 20 24 15 5 9 18 19 18 18 18 16 14 12 13 14 10 9 7 9 12 19 22 21 12 7 8 7 14 3
35 33 35 39 33 30 30 27 23 19 22 19 23 24 26 25 5 1 6 8 14 15 18 21 19 16 13 11 11 12 9 7 6 8 11 17 18 21 13 11 7 6 6 6
36 38 38 34 36 31 27 29 18 16 16 13 24 27 29 16 10 6 7 3 7 12 19 19 15 12 11 11 10 11 7 6 7 8 10 14 16 18 14 16 11 6 8 6
40 34 43 38 39 38 34 29 24 15 12 18 21 20 8 9 10 10 7 7 7 16 19 17 11 11 10 10 8 10 6 5 8 8 10 12 12 14 17 15 14 11 9 8
39 43 31 40 36 34 33 38 31 27 24 20 13 18 14 12 9 8 9 9 11 15 15 10 10 10 12 8 7 8 5 6 7 6 9 10 9 10 12 14 12 9 7 8
32 30 37 34 35 34 36 32 28 28 17 15 17 20 14 16 7 12 10 7 7 10 11 10 9 11 10 7 7 7 4 5 6 5 8 9 8 7 9 13 16 8 5 7
45 25 29 32 47 38 35 36 33 25 27 12 11 16 16 13 13 8 7 10 3 7 10 8 8 9 7 5 5 5 3 4 4 3 6 7 6 5 7 12 14 14 6 9
53 24 32 39 37 41 37 39 32 22 25 22 20 6 11 13 9 7 15 9 1 5 12 10 8 8 7 5 4 4 2 4 3 3 4 5 5 5 5 10 14 17 17 9
51 46 26 29 37 40 37 37 38 30 20 24 17 18 13 12 13 10 7 13 2 4 14 13 8 9 7 5 3 3 3 2 1 4 2 3 4 5 5 8 10 16 18 14
48 43 44 22 30 41 41 37 37 37 29 25 26 23 16 12 11 11 12 12 12 5 15 16 10 9 9 6 4 2 3 1 1 3 1 2 4 3 5 10 10 11 13 14
47 53 42 45 35 40 39 38 38 41 37 34 29 24 16 17 11 11 15 14 14 12 20 20 13 8 11 7 6 3 1 2 1 2 1 3 4 3 7 11 12 12 13 19
42 52 48 38 37 33 41 39 37 39 37 32 30 26 20 16 11 15 19 17 15 18 22 21 17 9 11 7 5 5 2 1 1 1 2 3 5 6 9 12 12 12 12 14
31 46 45 41 35 36 38 42 39 38 38 36 35 29 22 17 18 16 18 16 15 18 22 22 17 11 9 10 7 5 4 3 1 2 2 4 5 7 9 12 12 11 11 11
25 42 43 40 35 27 35 31 34 35 35 35 34 27 27 23 15 18 17 17 16 16 21 25 18 14 9 10 11 8 6 5 4 1 3 4 6 7 9 11 11 9 7 8
30 38 30 35 36 26 32 37 35 36 37 33 32 31 25 24 22 22 21 19 20 19 15 25 23 16 13 10 10 10 8 6 7 4 3 4 6 7 7 8 9 8 6 5
28 39 37 29 29 25 34 32 31 28 34 31 31 29 30 25 26 25 23 17 23 18 18 22 26 22 17 15 12 12 11 8 7 8 5 4 4 6 7 7 8 8 7 7
36 36 40 32 23 31 37 29 33 32 25 32 31 31 29 30 29 21 20 21 24 19 18 20 26 18 9 15 16 13 15 10 8 10 9 7 6 6 8 9 9 10 11 10
38 37 34 37 24 19 22 31 36 34 27 21 33 32 33 29 27 26 15 19 24 22 19 21 26 20 11 9 12 13 14 14 12 10 11 10 8 8 8 8 10 10 9 8
15 34 37 31 38 16 30 20 29 25 30 18 30 35 31 29 27 25 18 16 26 21 20 23 26 24 16 11 9 8 9 15 17 13 12 13 11 10 11 11 10 11 11 12
19 9 23 36 25 34 29 11 24 25 22 20 25 29 30 30 27 27 25 22 19 18 23 24 26 24 20 15 13 13 11 10 17 19 15 12 14 14 13 13 13 12 12 12
10 15 12 20 26 25 32 21 21 26 28 27 24 23 25 26 25 24 26 26 24 22 25 25 26 26 20 19 18 17 18 14 11 15 20 16 14 16 16 15 14 12 12 12
7 12 12 11 8 30 31 22 33 28 31 29 29 23 24 24 23 24 24 24 21 21 26 25 26 28 22 19 20 21 21 21 16 13 14 18 19 17 16 19 19 19 17 18

GFSCGP_700_spd_015.txt.gz
Wind_Speed
34 36 42 41 40 34 28 29 32 33 34 32 29 25 18 28 24 19 24 31 31 23 26 32 29 27 27 26 23 23 20 21 19 17 18 13 16 18 20 20 20 20 9 5
39 53 43 39 34 36 31 34 37 36 35 18 26 22 21 15 18 25 30 28 20 25 24 29 28 25 26 24 23 19 18 17 16 14 15 18 19 20 22 18 15 14 10 5
50 47 43 39 36 33 36 38 38 37 32 28 29 21 19 21 26 24 24 21 25 24 22 24 25 27 23 21 21 16 15 15 12 10 14 19 20 23 18 14 13 10 12 5
44 45 34 34 38 33 39 35 33 31 33 27 22 14 23 24 25 22 24 17 16 18 21 22 18 18 17 19 18 14 13 12 8 9 12 19 22 24 15 10 8 9 14 3
46 36 45 41 40 34 43 32 33 35 36 34 23 18 25 27 24 20 7 11 14 17 21 16 18 19 19 17 12 12 12 10 7 7 11 18 20 22 19 15 8 8 10 3
42 37 35 44 38 37 27 32 35 35 36 17 20 20 32 26 24 11 8 7 10 16 16 17 20 19 17 13 11 10 10 8 7 5 10 15 16 19 18 18 9 9 7 2
39 44 38 34 38 35 39 34 20 11 8 6 19 19 29 29 14 13 11 7 7 10 12 20 20 17 12 8 10 9 8 7 8 6 10 13 14 17 19 16 13 12 6 5
38 25 46 38 46 42 41 40 20 7 4 7 23 19 25 25 24 15 9 8 8 14 17 17 15 12 6 9 8 8 7 5 7 7 9 10 12 14 18 16 13 12 11 8
37 34 18 42 39 44 39 39 36 26 13 10 22 13 17 15 19 14 9 10 13 12 12 11 11 7 9 8 5 8 7 5 5 7 9 10 10 11 15 16 17 11 11 8
23 20 38 29 39 40 43 30 29 17 8 6 8 20 15 21 18 13 17 14 10 8 7 10 7 10 9 2 4 7 7 4 5 7 8 9 9 9 12 13 14 8 8 7
45 24 25 33 45 46 40 43 32 29 22 5 2 12 19 22 19 18 18 12 9 5 6 7 7 11 3 1 2 5 4 2 3 5 7 7 8 8 11 16 19 11 10 9
58 21 33 33 41 39 38 39 34 24 17 26 23 11 8 10 18 16 13 12 8 4 4 6 7 9 2 1 1 4 4 0 1 4 5 6 8 8 9 14 17 9 8 11
46 54 11 24 30 32 46 43 40 23 31 27 13 12 19 17 18 14 13 13 11 5 3 4 6 8 3 2 2 3 4 1 1 4 4 6 7 8 9 8 12 14 12 14
50 47 54 19 29 31 50 39 37 41 28 29 31 26 22 18 14 13 13 11 12 8 6 4 4 6 2 3 2 3 4 3 3 5 4 6 7 7 10 9 10 14 14 13
38 53 46 53 31 17 47 46 41 42 34 34 31 20 28 18 19 19 16 17 14 10 8 6 5 4 3 3 1 2 3 4 5 5 5 6 7 9 11 11 12 19 18 14
24 48 52 41 45 41 21 51 47 43 38 33 30 33 23 16 21 15 19 21 17 13 8 6 5 7 5 4 2 1 1 3 5 6 5 7 7 10 12 12 12 15 18 15
15 25 43 44 45 32 32 35 51 45 40 36 38 35 31 19 26 18 24 26 20 12 6 6 3 2 4 5 4 2 1 2 2 4 5 7 8 10 12 12 12 15 13 13
19 16 25 35 38 20 27 34 44 45 43 38 35 36 32 27 21 19 25 24 19 13 8 6 6 4 4 6 7 4 2 3 2 4 5 8 9 10 11 12 11 13 13 12
26 14 12 27 34 21 29 28 35 48 43 37 39 28 29 26 26 18 21 22 19 15 9 5 5 6 5 3 5 7 3 3 4 3 5 7 10 10 11 10 9 10 10 10
21 15 17 8 20 19 36 27 34 33 39 37 33 36 32 26 32 30 20 23 21 17 13 11 9 8 10 7 6 7 7 4 4 4 6 7 9 10 11 10 9 8 9 7
24 20 27 25 21 25 39 28 23 30 23 35 34 37 34 35 29 27 24 22 22 19 20 16 10 10 8 10 11 9 9 6 5 6 6 7 7 9 10 10 9 8 8 9
4 11 18 21 9 9 27 35 34 21 26 17 33 33 36 36 32 27 27 20 29 22 22 19 12 9 11 10 12 15 11 10 8 6 7 7 6 5 7 10 10 8 7 8
2 1 13 2 21 14 17 29 28 36 31 34 24 29 33 33 33 35 30 21 24 22 25 21 15 10 16 10 8 14 13 13 12 8 6 8 8 7 7 7 8 9 9 8
4 7 13 7 27 32 21 11 4 15 28 36 35 31 35 35 33 34 34 25 24 26 26 20 15 12 19 17 11 10 10 10 12 11 8 6 10 9 8 8 7 7 7 8
22 7 13 16 10 28 22 14 10 21 24 24 24 30 33 37 36 39 31 27 27 29 23 19 19 16 21 21 17 14 11 7 5 9 11 8 9 9 11 10 10 9 9 10
23 3 4 12 3 11 16 8 17 19 20 24 26 28 35 39 37 35 34 29 29 30 28 24 21 19 20 23 20 18 16 14 10 6 6 9 12 10 10 13 14 15 14 14

GFSCGP_700_spd_021.txt.gz
Wind_Speed
46 43 56 50 48 45 41 36 38 43 37 29 28 28 31 22 26 24 26 22 25 19 26 31 30 25 24 27 27 33 32 31 30 26 24 19 18 20 22 21 14 13 14 11
48 63 57 48 45 43 43 40 45 43 37 28 29 31 26 23 21 21 24 27 29 26 25 28 31 27 18 20 25 30 31 29 25 24 22 16 17 19 20 20 12 10 11 15
63 63 55 49 49 45 47 47 45 43 27 28 31 36 23 19 20 21 15 17 18 22 25 23 23 17 15 18 24 29 27 25 22 23 19 15 16 20 20 18 13 9 8 11
58 61 30 51 54 49 47 44 40 37 32 23 2 9 19 22 24 17 17 20 23 24 27 23 13 13 11 17 24 25 23 21 20 19 15 13 15 17 18 16 11 9 9 4
48 48 51 35 47 49 50 41 36 32 32 29 31 16 33 22 22 17 20 18 15 13 14 10 8 9 12 19 24 21 20 18 18 14 13 12 14 15 16 13 11 9 6 0
43 38 40 60 40 37 38 37 26 28 32 21 40 18 17 26 24 20 16 11 9 10 10 7 9 10 15 19 17 18 15 17 13 12 11 11 12 12 13 13 10 8 3 3
35 33 32 37 44 36 36 32 5 7 9 7 25 18 35 20 12 19 16 17 14 13 7 4 7 9 9 13 15 12 15 12 9 8 8 10 9 10 11 13 8 7 4 4
34 24 44 38 37 38 42 38 15 6 4 5 26 11 26 19 14 19 22 21 15 11 6 1 7 7 9 11 11 14 11 9 7 5 7 7 7 9 13 11 4 6 5 5
29 32 11 45 35 35 34 47 38 5 6 0 13 29 32 24 24 24 17 16 17 8 3 6 4 6 6 11 12 8 8 5 4 5 6 6 6 9 11 7 6 7 3 6
11 22 33 14 35 45 40 29 29 31 5 4 6 12 18 16 7 8 12 13 14 9 2 6 6 6 8 7 5 5 4 3 2 3 3 5 5 8 9 8 9 7 5 5
29 12 10 32 38 47 44 32 32 29 18 5 2 9 18 16 15 14 13 14 9 5 4 5 6 7 6 4 3 3 2 1 2 2 2 4 3 5 10 8 7 8 9 8
38 16 18 35 15 28 41 45 31 27 15 28 14 19 4 9 15 20 17 14 9 6 4 6 8 7 3 5 3 2 1 1 1 1 2 2 4 5 8 8 10 10 11 10
14 26 18 7 21 20 41 52 51 35 15 17 15 18 23 24 12 19 20 14 9 5 5 7 8 6 5 5 3 1 3 1 0 1 3 4 5 4 6 9 12 14 11 10
5 19 38 22 14 38 35 41 43 40 36 34 33 28 23 16 14 15 21 15 11 4 4 4 10 6 7 6 3 1 3 2 2 3 3 5 6 6 6 9 13 15 15 14
12 10 26 46 41 13 32 34 46 48 44 37 41 32 25 20 20 17 20 16 12 5 5 5 9 6 8 7 4 2 2 3 4 5 5 9 8 9 10 10 11 13 12 10
13 9 15 33 41 48 25 22 37 51 46 41 37 34 29 22 23 23 23 13 8 7 6 6 10 9 10 8 6 4 3 2 6 7 7 9 10 12 10 11 12 12 11 9
15 11 18 18 30 34 32 40 26 39 47 50 41 39 31 27 23 26 24 14 8 8 8 6 8 8 12 9 7 6 5 3 6 8 8 9 10 12 10 9 11 13 16 17
23 23 15 13 10 8 41 43 37 26 38 46 41 35 34 27 26 26 23 13 11 13 11 8 7 7 15 12 9 8 6 4 5 9 10 10 10 12 12 11 11 11 12 14
23 25 9 6 7 14 23 23 44 42 29 38 45 44 34 29 27 31 25 20 13 12 12 8 8 6 13 13 11 8 7 6 5 8 10 11 11 12 13 11 10 11 12 13
20 24 21 4 5 6 8 24 9 29 39 27 39 43 44 32 35 34 23 18 18 18 15 13 10 8 12 15 13 9 8 8 6 7 10 11 12 11 10 12 10 9 10 11
7 15 25 17 7 3 7 17 23 29 22 28 31 40 41 35 35 29 27 23 18 19 21 17 12 5 8 12 14 12 10 9 9 7 8 11 11 11 11 9 9 9 9 10
2 3 10 13 7 6 5 19 29 22 22 24 33 36 37 34 28 29 27 26 24 21 25 23 17 13 9 12 12 13 12 10 10 9 8 9 11 11 12 11 8 8 9 10
11 8 8 5 10 1 9 13 18 21 31 25 37 36 39 37 30 30 30 27 28 24 21 25 21 18 14 12 13 12 15 13 11 12 11 10 11 11 11 11 10 9 9 9
11 11 15 7 13 6 4 8 11 17 21 34 32 27 38 41 37 32 29 31 26 24 24 26 25 20 16 12 16 13 16 16 14 12 14 13 12 12 11 12 12 11 10 11
4 6 8 11 16 14 1 5 17 18 18 24 33 29 36 35 36 26 33 31 30 29 24 28 26 22 16 14 20 19 19 20 17 16 14 16 16 15 14 13 13 13 13 12
7 4 12 12 14 4 5 4 14 20 26 29 28 30 34 37 37 31 28 30 29 30 28 26 26 24 19 16 23 21 19 19 18 19 18 15 18 18 18 16 15 13 13 14

GFSCGP_700_spd_024.txt.gz
Wind_Speed
44 51 68 68 61 49 41 40 43 39 40 37 41 37 41 30 27 21 16 16 18 21 21 19 19 23 29 28 25 30 36 31 29 28 30 27 26 23 24 24 23 18 16 15
45 62 65 58 55 47 44 46 49 44 44 37 39 39 31 27 22 19 14 16 19 21 23 27 24 26 30 27 23 26 29 29 27 28 28 26 24 21 24 23 21 17 14 14
61 63 58 51 50 46 47 52 45 47 30 24 33 41 37 23 22 18 15 10 9 15 18 20 24 26 22 20 21 23 24 25 25 28 24 24 21 21 23 22 19 13 12 13
56 62 26 52 55 52 54 50 45 44 36 19 8 12 34 24 21 21 12 12 13 18 19 22 15 10 6 8 13 18 21 21 25 23 23 20 19 20 20 20 15 13 11 8
50 48 62 40 42 50 54 43 44 41 38 31 29 17 28 29 22 24 17 17 15 14 13 11 9 9 8 6 11 17 17 21 21 21 20 17 17 18 16 14 13 12 8 5
43 31 36 62 41 34 35 16 22 26 23 13 28 20 29 31 28 24 19 11 8 8 6 10 9 11 7 8 12 14 17 18 19 20 15 15 15 15 14 14 12 10 5 2
30 34 18 26 41 35 30 24 4 5 6 5 21 16 35 12 9 21 17 13 11 10 12 9 8 7 7 7 10 15 15 16 17 14 12 12 12 12 13 14 9 6 2 3
22 12 31 28 39 35 38 37 16 8 4 4 18 14 17 15 13 10 10 13 12 11 13 8 3 5 5 8 12 13 13 13 13 9 10 10 10 9 13 11 2 3 1 4
24 24 13 26 28 35 37 38 32 11 8 2 11 11 22 21 13 10 13 11 14 13 14 5 4 6 6 10 13 10 10 10 8 7 8 8 6 7 8 6 2 5 3 4
19 13 30 22 29 32 38 35 28 24 6 4 6 9 13 15 17 5 7 10 10 16 10 4 6 7 8 10 8 6 8 7 6 6 6 5 3 5 6 2 3 2 5 7
35 11 11 32 38 40 33 35 21 26 13 5 1 8 15 14 8 9 4 6 11 13 5 5 6 9 9 8 6 5 6 6 5 5 5 3 2 4 6 2 3 7 8 10
26 15 17 29 31 35 42 42 43 24 20 16 3 5 19 16 13 14 12 9 14 10 6 5 7 9 9 7 6 4 4 5 4 4 2 2 1 4 5 6 5 9 9 9
5 11 10 4 22 21 49 47 46 39 20 35 5 6 9 15 14 10 13 14 16 10 7 5 10 10 8 8 6 3 2 3 2 1 2 1 2 4 5 8 7 6 7 10
1 13 13 12 15 26 38 41 41 36 17 27 45 29 27 11 9 9 15 19 16 11 6 5 10 11 7 8 6 2 0 2 2 2 4 3 5 6 8 8 10 11 11 11
4 7 18 29 17 14 13 39 45 55 42 23 30 33 18 13 8 6 15 20 18 12 6 5 9 9 7 9 6 3 2 3 3 4 6 5 8 9 9 8 8 12 13 11
5 5 12 28 36 27 23 16 40 50 54 46 35 31 25 13 15 16 13 19 16 13 6 6 8 9 8 9 8 5 3 4 5 6 8 7 8 9 11 8 7 8 12 10
18 4 13 7 18 18 24 39 25 37 42 49 41 46 33 23 17 17 17 19 11 13 8 6 4 5 9 10 9 7 4 4 6 7 9 8 7 8 10 11 12 13 13 13
13 12 6 6 2 6 16 27 32 23 26 44 47 41 37 26 18 18 21 20 12 13 11 8 6 9 13 12 11 9 7 5 7 9 11 10 7 6 8 11 12 11 11 12
11 10 2 3 6 10 14 7 20 33 29 15 29 36 36 31 26 26 23 22 12 13 12 7 5 6 13 12 11 11 9 6 7 10 12 12 9 7 6 9 11 11 10 11
12 12 11 3 3 5 6 15 8 26 30 29 23 28 32 30 33 30 23 27 19 14 16 13 11 9 14 15 12 11 11 8 6 8 10 12 10 8 6 6 8 10 12 13
8 16 21 21 5 6 9 17 21 22 16 29 28 26 32 40 29 26 22 26 20 15 16 18 13 7 9 15 14 12 11 10 8 7 9 11 11 10 8 5 5 9 9 12
7 8 11 13 7 7 10 10 18 16 22 24 32 31 28 32 34 32 26 31 21 21 21 23 17 15 12 13 16 15 12 12 10 8 9 10 10 9 8 10 7 7 8 10
9 7 4 6 8 4 2 7 5 13 20 23 30 37 31 31 33 29 25 30 26 24 26 27 23 19 15 12 12 15 16 11 11 11 9 10 11 11 9 8 8 9 8 9
7 9 13 15 3 14 3 1 4 10 18 26 23 29 33 30 31 30 27 27 29 27 28 27 28 23 17 14 13 12 15 15 12 12 11 10 11 11 12 11 10 10 10 10
4 2 1 9 19 13 10 6 5 10 14 25 24 26 29 32 32 31 31 27 26 25 31 26 23 27 20 17 18 15 15 19 17 14 14 13 12 11 13 13 13 12 12 13
5 4 4 7 9 6 4 9 6 9 15 19 25 24 28 27 31 36 33 27 25 28 26 25 25 30 24 21 19 18 18 19 21 19 15 14 14 13 13 14 15 15 15 16

GFSCGP_700_spd_027.txt.gz
Wind_Speed
47 53 61 60 58 40 34 38 36 29 25 32 39 42 48 44 40 32 26 21 14 14 18 18 18 20 20 23 28 30 30 33 36 32 28 28 29 27 27 25 25 27 25 21
44 62 68 61 49 53 48 35 37 33 37 37 42 49 49 45 40 37 29 17 12 14 15 18 21 25 28 30 30 27 29 32 31 28 26 27 26 25 25 24 25 25 21 17
61 69 59 57 56 46 47 49 39 36 28 34 35 45 35 44 30 30 22 17 11 9 9 15 20 22 24 27 25 17 20 23 24 23 24 25 23 25 23 23 24 21 17 16
52 55 34 52 49 38 44 41 38 33 24 26 21 29 27 41 44 29 23 16 12 13 15 20 22 20 12 14 11 9 15 17 18 19 23 21 23 22 21 23 20 18 16 13
46 34 43 34 47 46 47 23 32 30 18 22 31 24 33 28 39 23 24 19 13 15 18 16 12 12 11 11 7 9 10 12 15 21 19 21 19 19 21 20 18 17 14 8
33 19 27 52 30 31 25 19 20 18 23 24 32 25 44 30 32 22 27 20 13 12 13 11 10 12 13 8 5 6 9 12 18 17 19 17 16 18 19 17 18 14 9 3
25 27 23 25 33 27 26 26 9 9 11 13 18 19 39 22 19 12 24 23 15 11 10 11 11 10 10 8 7 8 10 15 15 16 14 13 14 15 14 17 11 7 4 3
25 16 32 25 34 35 39 39 19 11 9 10 24 14 23 30 13 19 17 19 20 12 12 14 9 6 9 7 7 8 13 15 13 12 11 12 13 10 12 10 3 6 4 2
19 24 16 27 29 36 39 39 32 22 3 4 8 9 18 12 12 17 16 18 15 11 12 14 7 10 8 6 6 12 11 10 10 9 9 10 10 6 7 8 6 7 1 4
14 10 27 31 27 31 32 38 24 20 13 8 6 6 16 8 19 16 15 16 18 14 15 13 10 11 8 7 9 8 8 9 8 8 7 7 6 5 9 7 5 1 3 6
28 7 17 33 34 39 28 41 18 23 12 6 3 7 12 11 14 13 11 10 9 10 14 9 10 9 9 6 7 7 7 8 8 7 5 5 2 5 8 3 2 3 7 8
24 17 8 38 23 30 36 34 36 23 11 18 5 7 7 18 16 15 9 7 8 13 11 9 8 8 6 5 7 8 7 7 7 5 3 1 1 3 4 3 5 5 6 9
9 16 17 11 17 27 39 34 37 24 15 21 13 3 14 13 16 13 8 8 12 14 11 8 6 8 6 6 8 8 7 5 5 2 1 2 2 2 2 5 5 5 5 9
4 14 19 15 18 20 33 36 31 33 24 16 30 17 18 13 12 9 7 12 16 13 10 5 8 7 7 7 9 7 5 4 4 3 4 4 3 5 6 8 7 5 6 9
5 5 15 28 15 12 11 33 36 37 34 26 18 32 31 13 7 4 9 21 18 14 9 5 9 6 6 8 9 7 4 5 5 5 6 6 7 6 6 8 9 10 6 5
9 2 8 23 20 10 10 13 30 35 33 31 26 23 22 18 12 5 14 19 18 13 8 9 8 7 7 8 9 6 5 7 7 7 9 8 9 9 6 6 8 8 7 6
7 9 2 21 11 9 12 19 17 24 34 32 32 32 17 27 18 6 13 12 17 15 9 6 4 3 7 9 9 7 5 8 8 9 9 9 9 8 8 9 10 7 7 7
3 5 1 5 7 9 5 13 18 20 23 35 38 29 29 23 15 11 8 15 16 17 13 8 8 6 9 12 12 9 7 9 10 10 10 9 9 8 7 7 10 10 8 13
13 5 2 3 10 3 7 5 19 20 20 20 31 39 40 28 26 21 15 17 17 18 13 7 4 4 7 12 12 10 8 9 11 11 11 10 9 8 8 6 5 7 8 13
16 13 5 2 4 11 8 4 12 27 17 26 25 25 32 36 32 25 15 19 22 19 18 13 10 6 9 13 12 11 10 9 11 11 12 11 10 9 9 7 6 8 11 11
17 16 14 9 3 3 6 3 12 16 11 18 28 27 27 32 29 25 22 26 24 19 18 19 12 5 6 13 13 12 11 10 11 13 13 13 11 9 9 9 8 9 9 9
9 12 8 7 5 4 5 4 10 7 15 18 28 27 26 28 29 28 24 30 30 25 21 23 16 11 8 13 15 13 12 13 11 11 13 13 12 10 9 10 9 10 10 10
5 6 7 10 6 5 4 4 7 9 14 16 25 31 25 26 29 32 24 30 28 28 23 23 22 16 11 12 16 15 14 12 13 12 12 13 14 14 12 11 11 10 11 12
11 8 4 5 7 9 4 5 3 8 10 11 20 29 31 27 26 29 30 29 27 32 23 24 27 21 16 12 14 18 16 13 14 14 13 13 13 13 14 14 14 14 12 12
7 7 4 4 7 8 7 10 8 8 11 12 17 21 27 32 27 26 27 26 29 34 25 25 29 22 22 16 16 15 15 18 15 15 16 15 15 14 13 13 14 15 16 15
6 3 2 4 4 5 12 11 11 10 10 14 17 21 21 23 28 27 30 28 28 28 28 27 31 27 27 21 19 17 13 14 19 17 16 17 15 15 15 15 15 15 17 18

GFSCGP_700_spd_030.txt.gz
Wind_Speed
48 42 50 65 54 45 42 45 44 36 34 35 39 42 37 34 34 36 36 37 39 31 18 20 20 20 18 21 23 24 27 28 28 27 30 30 29 29 31 30 29 27 26 27
36 52 73 45 43 41 42 42 46 39 34 36 37 42 40 39 42 39 40 38 32 21 20 19 19 20 19 23 28 29 31 28 24 25 26 26 25 28 29 28 28 25 25 23
56 69 45 46 44 43 47 45 39 40 32 32 36 44 46 41 39 36 34 33 29 23 17 11 15 18 20 22 25 28 28 22 17 19 21 21 24 27 25 26 25 24 23 20
46 53 38 48 49 50 48 35 34 37 32 41 35 36 45 34 36 33 33 28 24 22 20 13 14 20 22 21 19 20 18 12 13 16 17 19 23 22 23 22 23 23 21 18
46 43 51 45 62 45 53 35 33 32 35 38 40 36 43 29 34 33 27 23 21 22 18 17 19 17 13 13 15 16 11 11 13 13 16 19 20 20 19 21 22 20 19 15
37 25 36 59 35 43 34 25 25 26 30 29 37 36 43 42 41 33 23 19 20 25 17 17 17 11 10 11 14 11 10 11 10 13 16 18 17 15 17 19 20 17 11 8
30 40 23 26 41 36 38 33 15 17 19 18 28 29 35 37 24 28 19 14 23 22 17 14 13 12 9 9 11 11 11 10 13 14 15 14 12 14 15 15 13 7 6 7
34 30 41 30 46 39 48 44 24 19 15 16 27 14 25 18 27 27 23 15 21 21 16 13 14 12 9 7 8 10 9 12 12 12 11 10 12 13 11 11 10 8 8 3
31 39 30 29 37 41 42 46 38 15 15 9 20 23 26 23 13 19 19 22 24 24 19 16 15 11 8 7 8 9 10 9 10 10 8 10 11 10 9 10 8 9 1 3
15 17 31 45 34 38 40 38 34 30 18 16 14 14 15 5 11 15 19 23 22 26 17 16 16 11 8 6 9 10 8 8 8 7 7 10 8 8 9 7 5 4 1 4
11 8 26 37 38 43 37 43 34 31 20 14 7 11 12 13 10 17 17 18 23 22 19 17 13 10 8 6 10 7 6 8 7 7 7 8 7 5 6 3 2 1 4 5
15 11 18 37 35 35 40 33 41 26 26 17 10 7 4 7 9 19 13 21 22 19 17 15 9 7 6 7 8 6 6 7 7 6 6 5 5 4 3 1 2 3 4 7
20 14 16 20 32 30 39 34 41 24 26 28 15 4 9 8 12 16 13 19 18 16 15 9 7 7 6 8 6 5 5 6 6 4 4 3 2 1 1 2 3 4 5 6
6 22 21 9 34 27 36 35 36 35 19 18 24 18 7 10 8 10 9 16 18 15 10 8 6 5 8 8 6 5 5 6 4 4 3 2 2 3 3 4 3 4 5 7
2 25 28 14 6 5 14 36 33 38 31 25 18 26 16 15 5 3 9 18 20 15 11 8 5 5 9 7 6 4 5 6 5 5 3 3 6 5 4 5 7 6 4 6
3 5 25 24 13 6 8 16 34 30 33 27 21 22 17 17 12 2 2 23 23 15 10 7 5 6 9 7 6 6 5 6 7 7 6 6 8 6 4 4 5 5 5 5
5 3 16 28 19 8 13 17 25 32 29 28 32 28 13 10 12 3 1 26 24 15 10 7 3 5 9 8 7 6 6 8 9 9 9 9 8 8 5 5 1 5 4 4
8 6 6 19 21 13 5 9 19 22 30 30 25 19 19 13 8 7 2 14 24 18 12 7 5 7 9 11 9 8 7 9 11 10 9 9 8 8 8 7 5 4 9 8
13 8 4 9 19 17 5 7 12 18 18 22 24 27 25 18 17 14 10 9 19 23 17 9 4 6 9 11 8 8 8 10 12 11 10 9 8 7 7 6 4 3 8 10
14 12 6 9 17 14 8 8 23 24 17 26 26 28 28 26 21 11 14 14 12 21 21 15 9 8 8 11 10 10 8 9 12 13 11 10 9 8 8 7 7 8 10 8
15 12 10 7 11 5 2 4 16 18 8 19 23 23 24 27 26 22 20 17 14 20 27 20 11 4 5 9 10 11 10 9 12 14 12 11 10 9 9 8 8 8 7 4
13 11 8 5 8 5 4 3 6 11 10 13 20 24 22 22 24 27 22 18 17 23 28 25 17 9 7 8 11 11 11 11 12 13 14 12 11 10 10 10 9 8 8 8
4 5 5 5 3 4 4 4 9 8 9 10 17 23 24 20 23 25 25 21 19 27 28 30 24 15 8 7 10 12 13 11 12 14 14 14 13 12 11 11 10 10 9 10
3 10 3 3 3 3 3 7 6 10 9 8 12 20 23 21 22 26 27 23 21 29 27 30 26 21 13 9 9 14 14 11 12 13 14 15 15 14 13 13 12 12 11 11
6 4 6 5 3 3 10 9 8 7 10 10 9 14 23 25 22 26 28 26 24 28 29 27 26 23 20 14 12 12 14 16 14 14 13 14 15 15 14 13 12 13 13 13
7 2 2 4 3 6 7 14 13 11 9 11 13 11 15 24 26 25 27 29 29 28 25 28 27 28 26 21 17 12 10 15 16 15 15 15 15 15 16 16 15 15 14 15

GFSCGP_700_spd_033.txt.gz
Wind_Speed
33 34 46 60 57 56 52 35 42 46 40 37 45 52 42 38 35 35 34 34 36 34 33 30 23 25 25 26 24 23 23 27 28 31 26 26 28 27 29 29 29 31 31 28
37 49 70 44 44 44 45 45 47 43 39 40 42 43 42 41 40 38 38 38 38 37 31 24 23 25 25 23 20 23 25 26 28 27 24 25 24 25 25 26 31 30 28 26
46 62 39 47 47 42 47 46 45 44 35 35 40 46 47 44 43 43 43 42 37 34 27 22 26 20 17 21 22 22 24 26 24 22 17 17 19 20 22 27 29 27 23 24
39 48 46 46 49 49 51 44 39 36 34 36 33 34 51 42 39 38 37 32 30 25 24 21 26 17 17 17 20 22 19 19 20 13 14 14 16 19 24 24 24 25 23 23
47 42 51 51 57 46 58 35 36 34 32 36 41 33 48 33 36 35 30 29 29 25 20 21 25 20 18 19 17 15 16 16 13 14 13 14 17 21 23 21 22 20 22 17
41 37 39 56 50 40 41 38 36 32 34 28 42 34 48 42 40 34 30 26 22 23 21 26 20 20 17 15 14 12 12 13 14 12 13 15 17 19 17 18 18 19 14 10
42 41 38 39 44 46 38 41 26 25 27 27 32 33 45 36 33 30 29 27 17 18 28 24 19 18 16 16 11 9 11 12 12 13 13 15 15 13 14 13 15 13 12 9
39 39 44 44 42 56 51 50 30 32 14 22 35 37 41 27 29 30 23 15 15 21 25 22 18 15 16 13 9 8 10 12 13 11 12 11 11 13 11 10 12 13 11 4
29 42 37 46 33 40 57 49 59 34 31 29 28 27 23 25 22 16 20 24 19 18 23 22 15 16 15 11 8 9 10 11 10 10 10 10 10 9 9 12 10 8 4 2
22 19 46 38 43 38 50 52 40 46 28 24 20 19 14 8 9 16 18 19 25 21 25 20 17 18 14 9 8 9 9 9 9 10 7 10 8 8 8 9 6 5 3 2
12 14 26 46 51 44 48 44 51 39 35 17 16 15 16 15 15 8 16 21 25 23 25 19 18 18 13 9 8 9 7 7 9 8 7 8 6 6 7 6 3 2 2 3
16 13 26 34 38 43 47 44 47 33 35 32 14 11 4 6 10 11 14 18 24 23 23 21 17 16 12 9 8 6 5 7 8 5 7 5 4 4 5 3 1 1 2 3
12 18 21 8 26 44 45 49 41 44 27 33 17 15 5 5 9 16 14 18 24 24 21 18 18 13 11 9 7 4 5 7 5 5 5 2 3 2 3 2 1 2 3 4
12 22 24 10 16 37 46 48 42 43 30 27 34 11 9 10 15 12 13 22 22 22 21 17 12 11 9 9 4 4 5 5 4 3 3 2 2 2 1 1 2 3 4 4
8 30 39 20 14 14 42 39 42 41 36 28 30 20 11 15 13 11 9 18 24 25 20 13 12 8 7 6 4 4 4 3 3 2 1 1 4 4 1 4 4 3 4 7
7 22 27 25 27 19 14 40 41 36 40 26 17 25 20 11 7 5 9 18 23 22 19 14 11 7 6 4 6 5 2 3 3 4 2 4 5 4 3 2 5 4 3 5
14 11 14 11 21 17 17 28 33 31 39 30 22 16 17 14 8 7 6 18 22 21 21 12 7 5 5 4 7 5 2 2 5 5 4 4 5 5 3 3 6 5 2 4
14 15 9 7 15 6 17 22 21 32 29 30 23 19 15 11 7 8 3 17 22 20 20 14 8 6 4 6 8 6 3 3 7 7 6 5 7 5 6 5 5 6 7 5
15 12 6 10 20 9 10 12 21 24 24 20 22 23 15 17 13 6 9 8 19 19 18 12 9 7 3 5 7 7 4 4 8 8 7 5 6 6 6 4 4 5 7 7
14 11 7 14 8 8 3 2 14 16 16 11 12 15 14 9 14 13 13 15 16 19 18 16 11 7 3 6 8 8 5 5 9 9 8 6 5 5 7 6 6 5 5 8
14 11 10 10 10 5 6 3 18 18 5 1 6 14 22 17 17 15 19 19 21 18 20 19 13 6 4 5 8 8 6 6 9 11 9 7 4 4 7 8 7 4 1 5
10 6 6 7 4 1 4 2 8 7 6 4 1 14 23 25 24 22 18 18 16 17 19 23 17 10 8 6 9 9 7 7 9 11 11 9 6 5 6 8 8 7 7 8
4 9 3 4 3 6 12 13 9 8 5 5 3 3 6 9 12 22 25 22 18 15 18 25 21 13 8 7 10 9 8 7 8 10 10 10 9 7 6 7 8 9 10 12
7 1 2 4 0 4 4 4 3 1 2 0 6 3 3 4 6 13 20 23 19 16 22 28 26 18 11 9 8 11 10 9 8 9 10 10 10 9 8 7 7 8 11 12
5 4 5 7 3 5 3 5 5 4 6 6 3 2 4 4 3 7 14 19 19 18 21 30 29 23 16 11 9 11 12 12 11 10 10 10 10 10 10 10 9 9 10 11
10 8 7 10 8 5 9 10 11 8 9 8 8 3 5 5 8 8 9 18 20 20 20 25 29 27 22 16 13 8 9 13 12 13 12 11 11 10 11 11 11 10 10 10

GFSCGP_700_spd_036.txt.gz
Wind_Speed
28 29 43 66 52 45 42 48 49 45 41 40 40 44 47 42 40 42 40 40 37 35 35 37 33 31 36 32 27 24 26 27 28 26 28 30 29 27 27 27 28 28 29 28
26 48 65 38 44 43 48 47 46 45 39 36 37 42 46 41 37 36 37 38 35 36 33 27 29 34 32 31 27 24 24 24 23 22 24 25 26 25 23 23 25 25 27 27
33 60 34 39 42 41 46 48 47 47 36 40 37 42 42 43 43 40 37 40 36 34 41 39 33 36 31 28 23 23 21 20 22 18 20 22 20 18 17 19 24 25 25 23
33 35 42 41 45 43 49 45 39 39 35 38 32 29 45 42 38 36 37 34 34 33 33 31 26 33 31 25 19 16 18 18 15 18 19 14 12 14 18 20 23 25 25 23
50 29 35 44 54 39 57 33 37 38 41 37 35 29 60 32 30 29 27 27 28 30 27 26 32 30 27 22 19 18 17 14 15 17 12 11 11 15 18 19 21 20 19 22
41 34 35 41 39 42 36 37 38 39 38 27 44 34 60 38 36 32 29 30 29 23 21 19 33 28 27 23 18 14 13 12 14 13 11 12 13 16 17 18 17 17 15 14
31 36 39 36 35 39 40 38 26 25 24 23 32 35 50 38 32 27 29 28 27 24 20 31 30 26 23 21 17 14 10 12 12 10 11 14 12 13 14 15 14 13 15 12
22 26 36 37 45 39 46 46 29 25 17 21 36 41 45 41 37 31 24 23 18 18 23 29 26 26 20 18 15 11 11 11 10 10 11 11 11 12 12 10 11 10 11 6
11 20 28 37 38 38 43 52 54 36 33 29 29 31 39 36 26 22 17 18 14 25 23 25 24 22 17 16 11 9 11 11 9 9 9 9 10 11 9 8 9 6 6 3
13 24 29 27 37 42 46 39 45 43 25 24 26 33 27 13 18 16 18 16 21 19 23 22 24 20 14 14 10 10 11 8 7 8 9 9 9 6 5 5 5 4 4 3
18 15 34 22 37 44 44 48 48 42 37 16 15 21 20 9 11 9 13 20 23 28 25 20 22 16 15 13 10 10 9 6 6 8 9 8 6 5 3 5 3 2 2 1
15 13 27 29 24 36 45 41 42 42 34 36 25 25 8 9 16 11 9 17 25 28 24 21 20 14 16 13 10 8 5 6 5 7 6 5 4 3 3 2 1 1 1 3
13 12 18 24 26 30 31 47 43 43 25 31 23 28 11 4 8 10 15 21 25 26 21 23 19 15 15 12 9 5 5 5 4 3 4 3 2 2 2 0 1 1 2 3
20 19 22 15 12 15 18 38 47 48 39 36 36 15 8 8 11 10 20 28 29 24 21 20 17 15 12 11 7 5 6 2 2 2 4 3 2 2 3 3 1 2 3 5
13 21 20 31 26 26 24 27 45 49 44 40 31 29 15 15 18 16 18 20 21 20 21 18 15 13 11 8 6 7 4 1 1 0 4 1 4 4 4 6 5 4 4 6
17 15 16 17 23 26 36 28 26 46 40 43 31 24 8 22 16 10 14 19 19 24 22 18 16 13 8 7 7 5 3 1 2 1 3 1 4 3 4 4 3 3 2 5
23 17 15 12 12 19 26 31 28 37 41 41 28 19 18 17 10 11 10 18 24 24 22 18 17 13 8 7 6 4 3 3 4 3 0 3 3 4 5 5 6 3 4 6
20 18 11 3 1 4 18 19 24 33 33 41 13 18 20 17 8 10 15 19 22 20 22 18 16 11 8 8 7 5 3 4 6 5 2 3 5 7 7 6 6 10 7 6
15 13 7 6 11 13 13 9 8 25 24 6 26 15 18 13 16 15 13 22 19 18 21 16 14 13 7 7 7 5 4 5 7 5 4 2 6 6 7 6 6 7 7 5
12 12 7 6 5 5 4 9 5 4 17 8 11 16 13 12 12 18 15 22 24 21 18 18 14 10 8 9 7 6 4 5 7 6 5 5 5 3 7 6 5 5 6 9
9 9 11 11 6 10 1 9 6 13 7 9 11 11 23 7 8 16 20 17 25 22 20 18 14 8 8 9 9 7 5 6 8 7 6 6 3 3 4 5 4 3 5 8
2 5 5 4 3 6 10 11 22 13 13 11 7 18 26 16 11 14 17 18 25 21 19 16 14 10 8 8 10 9 7 6 9 8 7 5 4 4 4 5 4 4 6 9
4 12 11 7 8 4 15 19 13 18 17 11 6 9 17 20 21 20 16 21 23 25 21 16 19 12 10 8 10 10 9 7 8 8 7 5 4 5 5 4 6 7 8 10
7 9 8 11 5 14 11 11 18 11 8 13 10 5 3 12 20 24 25 22 22 27 24 19 22 16 10 8 9 11 10 9 8 7 5 5 5 5 5 5 6 7 7 9
11 14 16 14 13 5 17 12 9 11 8 9 11 12 9 5 9 5 4 16 19 17 26 22 25 21 12 9 7 10 11 10 10 7 6 5 5 5 5 5 6 10 8 9
12 17 17 13 14 13 13 13 4 3 6 3 5 12 9 5 3 6 7 11 15 21 18 23 25 25 19 13 9 5 9 10 10 9 7 7 6 5 5 5 4 4 7 7

GFSCGP_700_spd_039.txt.gz
Wind_Speed
28 30 52 64 52 47 36 45 41 38 39 42 47 47 50 44 40 38 42 45 35 36 31 37 35 30 40 40 32 31 34 29 24 22 23 27 31 32 33 33 32 28 24 24
20 45 55 45 49 52 52 44 39 33 32 34 43 42 43 44 44 39 39 36 35 35 34 37 30 35 27 32 27 29 32 31 25 24 23 25 27 28 28 26 20 18 20 23
28 40 32 38 39 35 45 52 40 43 30 37 40 38 44 43 42 42 36 36 36 36 35 34 35 36 39 36 28 36 29 27 22 20 22 22 24 24 20 15 14 18 21 20
31 33 33 31 45 35 43 35 38 38 30 45 30 25 45 47 47 42 42 40 33 35 37 35 32 36 29 23 25 26 24 18 18 19 19 21 19 17 15 16 17 20 19 19
45 14 23 32 36 31 44 30 34 32 41 40 37 26 60 41 41 37 31 22 29 30 28 29 30 29 24 25 25 22 20 19 19 16 18 16 14 15 15 16 19 17 15 18
35 31 30 30 27 29 31 33 34 35 37 21 35 32 67 46 47 42 34 32 30 28 26 30 26 26 25 27 25 21 20 17 15 15 15 13 14 14 14 16 14 15 15 16
25 28 28 30 33 27 26 34 13 14 17 18 30 26 49 3 10 24 26 25 23 24 24 26 28 24 22 21 19 20 19 15 15 14 13 13 14 12 13 14 13 13 13 14
8 13 22 17 30 31 29 30 22 16 13 14 28 21 30 43 37 36 31 28 29 26 30 31 23 24 21 19 19 20 17 14 14 13 14 12 10 12 12 12 12 12 10 8
7 13 18 22 15 29 38 40 38 32 37 12 23 38 42 33 34 33 31 29 28 22 24 22 23 22 20 17 17 16 14 12 13 13 12 10 10 10 10 9 10 8 5 5
6 23 22 27 23 24 35 37 21 35 18 15 16 32 27 36 34 32 27 26 21 24 21 22 19 18 16 16 17 15 12 11 12 11 11 9 9 8 6 7 6 4 2 2
10 15 35 25 24 20 19 42 36 26 32 11 10 22 29 22 14 10 19 26 20 20 20 19 18 18 18 17 17 13 10 11 9 9 8 5 5 2 5 4 3 0 1 2
13 18 21 25 26 27 27 32 39 26 15 31 26 28 30 20 10 13 15 21 25 27 22 20 18 15 19 17 15 10 9 8 8 6 4 3 1 2 3 3 3 2 1 2
13 6 11 10 15 26 21 19 34 34 37 33 25 24 39 17 16 16 16 25 28 28 26 23 18 19 16 16 12 9 7 7 6 3 1 1 1 3 1 3 4 3 2 4
12 14 10 13 23 19 17 14 18 19 29 33 36 38 34 24 14 15 23 26 26 24 18 17 18 18 14 13 9 7 7 6 3 1 1 2 3 3 0 4 5 4 4 5
10 13 16 20 22 19 30 27 20 20 23 23 36 31 37 19 17 17 22 29 26 22 17 13 16 14 12 10 9 8 7 2 2 3 2 2 5 5 1 3 3 5 4 4
21 16 23 22 16 15 28 36 28 28 29 27 35 36 16 39 22 21 28 28 24 19 14 15 15 12 8 8 8 7 4 4 3 4 3 1 5 5 4 3 2 2 3 6
24 24 20 15 7 9 11 31 25 31 29 27 35 31 21 29 22 24 25 25 24 20 17 19 13 10 7 7 7 7 5 5 5 6 2 4 4 4 7 6 4 3 1 6
17 16 18 12 5 5 11 10 9 24 27 28 32 36 23 30 23 21 24 23 23 23 22 18 14 11 9 8 8 7 6 7 6 7 4 4 3 6 9 7 10 8 5 3
14 13 10 5 7 15 6 3 4 8 6 7 22 35 15 19 26 25 28 23 21 20 20 15 11 10 7 7 8 8 7 7 7 6 4 4 4 6 8 8 8 8 6 4
14 12 13 12 2 4 9 15 11 14 15 19 30 28 14 20 26 28 30 30 29 18 15 12 10 11 7 8 10 9 7 8 8 5 5 6 6 6 7 6 5 3 5 3
12 11 15 13 5 7 23 18 11 6 10 13 20 44 14 17 22 26 30 33 34 26 17 10 9 9 7 9 11 10 7 7 9 7 4 6 7 5 5 4 2 4 6 5
9 3 4 3 1 6 12 22 12 10 18 18 22 31 19 16 22 22 19 27 28 28 24 14 8 9 8 9 11 10 8 7 9 8 4 6 6 5 3 5 2 5 6 7
8 16 13 8 6 1 6 15 27 18 14 26 22 17 18 14 18 18 15 14 27 27 29 20 10 9 8 8 10 10 9 8 9 8 6 5 6 3 4 5 4 6 9 13
9 16 14 9 18 21 13 17 23 20 22 18 19 13 13 15 15 16 18 17 19 20 26 20 18 11 9 9 10 10 9 8 9 9 9 7 6 5 5 5 5 7 8 14
18 19 18 17 19 14 22 19 21 20 14 17 17 16 12 15 20 20 20 23 25 23 20 21 22 11 9 10 10 11 10 9 8 9 10 9 9 7 6 5 6 10 12 15
20 23 23 22 22 16 14 12 8 9 8 20 17 16 13 15 17 27 26 23 27 25 24 20 21 16 13 11 10 9 10 9 8 8 9 8 10 7 7 7 8 11 13 12

GFSCGP_700_spd_042.txt.gz
Wind_Speed
38 43 53 57 51 50 35 42 36 23 30 38 48 56 56 52 44 43 38 38 36 41 36 38 38 25 31 35 33 31 26 25 29 28 29 28 25 28 31 32 33 32 29 25
36 51 53 47 39 45 45 38 36 30 23 23 29 37 37 35 38 40 41 38 38 37 35 31 29 32 35 34 32 35 32 30 29 28 30 27 26 28 28 29 32 24 21 20
25 20 40 44 37 36 40 44 43 34 26 32 30 36 37 46 44 44 47 41 34 34 37 32 31 35 33 30 28 28 32 26 24 26 26 24 26 27 26 23 20 18 18 18
26 32 30 17 32 34 39 35 28 33 34 37 35 30 46 52 51 47 46 44 42 42 43 41 32 33 32 28 29 27 21 21 21 22 21 23 22 22 20 17 17 18 18 18
32 8 18 27 27 21 37 29 25 26 28 32 35 24 64 45 51 47 45 46 45 34 27 28 31 25 27 26 25 24 22 21 20 22 22 20 19 17 16 18 18 16 15 16
25 23 21 19 20 17 16 21 23 30 28 19 30 23 61 44 52 45 41 33 29 27 25 22 21 23 26 24 23 21 23 20 21 21 17 19 17 16 18 17 14 14 14 15
23 26 19 20 20 21 19 13 5 8 12 16 22 22 53 6 6 9 16 17 16 15 20 24 27 25 24 21 20 17 18 18 21 17 17 16 16 17 16 15 14 13 13 14
4 5 13 11 11 22 24 19 12 7 4 10 23 20 43 37 42 34 34 31 28 20 26 26 27 25 21 20 20 17 17 19 18 16 15 16 16 16 15 14 14 12 12 11
3 6 12 13 16 10 19 28 26 15 30 5 19 36 47 22 26 21 32 28 24 27 25 26 25 21 19 18 19 18 18 16 15 14 14 14 14 15 13 13 11 11 10 8
5 7 13 17 17 21 18 18 15 22 6 8 9 18 24 16 33 26 20 27 27 26 24 22 17 17 18 16 18 18 16 15 14 13 13 12 14 13 13 12 10 8 6 6
8 7 11 17 9 17 19 24 19 15 16 8 6 16 28 22 25 17 20 12 24 24 21 19 17 17 14 16 17 16 16 14 12 11 11 13 12 11 11 10 7 5 5 5
12 10 18 26 25 20 21 21 16 12 22 21 26 34 6 21 28 21 21 17 17 20 19 16 18 14 14 18 19 17 15 12 11 10 11 10 10 9 7 6 5 5 6 6
8 5 8 14 8 9 17 18 17 24 27 35 14 17 35 33 27 19 21 18 19 20 21 21 20 14 13 18 18 16 13 10 9 9 9 7 7 6 5 4 6 6 7 7
19 17 14 12 13 18 17 20 14 10 16 33 40 34 42 37 26 16 21 25 22 22 21 23 19 15 15 18 18 15 11 9 8 7 7 6 7 6 3 3 6 7 6 6
10 10 19 20 25 21 22 22 25 19 17 13 30 34 40 32 24 20 19 24 28 26 25 23 17 17 18 17 17 13 9 8 7 6 4 6 7 5 1 3 3 7 7 5
22 16 16 32 26 26 25 25 23 22 22 23 29 32 26 31 27 25 23 26 27 30 22 19 15 19 16 16 13 11 9 8 8 6 5 5 5 4 3 2 2 6 7 7
24 23 13 16 19 4 11 18 23 22 19 21 28 32 24 18 23 23 27 25 29 25 20 17 18 17 14 12 12 11 10 9 9 7 7 5 5 5 3 2 3 6 7 9
19 17 16 18 24 5 4 4 9 21 23 22 26 34 26 16 24 29 30 33 31 23 19 20 20 17 14 14 14 12 10 11 11 9 6 6 6 6 6 4 4 6 5 7
12 15 11 6 9 11 6 8 8 10 27 21 26 37 29 28 23 29 34 36 31 22 20 22 17 14 12 13 13 12 10 12 12 9 6 6 7 7 7 6 6 5 3 4
16 20 21 12 6 3 3 9 7 4 22 21 20 21 31 27 26 19 34 38 25 21 25 22 18 13 12 13 13 11 9 12 12 10 7 7 7 8 7 6 3 1 1 4
4 15 24 29 13 6 15 17 19 13 9 18 18 20 12 35 16 29 32 32 27 23 23 18 13 9 9 11 12 11 10 12 13 11 9 9 7 7 5 4 3 2 1 3
7 3 7 8 9 4 19 28 17 7 10 17 17 18 20 20 13 24 32 32 28 27 22 15 12 11 9 11 11 11 10 12 14 13 11 10 8 6 5 3 2 0 2 1
10 17 8 9 15 15 10 16 13 18 16 28 25 23 23 24 16 16 32 35 33 27 24 18 11 11 8 9 11 11 10 12 13 15 12 10 9 7 5 4 6 5 6 6
14 17 16 13 19 21 24 19 12 20 14 27 30 27 26 24 23 25 30 34 32 30 27 20 15 11 10 8 11 11 10 11 12 15 13 11 10 8 6 5 8 7 9 12
19 20 21 22 24 14 16 20 14 7 20 22 35 33 25 22 24 23 28 30 31 30 28 22 17 12 10 9 9 11 10 10 12 14 14 12 11 9 7 8 8 11 12 14
20 22 28 28 29 20 8 8 17 8 31 24 21 21 22 19 21 20 21 25 28 35 34 22 21 17 12 9 8 9 9 9 11 13 13 12 11 10 9 10 9 12 13 14

GFSCGP_700_spd_045.txt.gz
Wind_Speed
41 40 51 56 53 48 28 34 17 13 26 28 45 56 52 52 51 52 54 54 54 50 38 30 24 26 27 32 31 26 33 31 28 30 29 29 27 25 24 25 27 27 26 26
34 49 48 43 43 42 42 29 22 25 21 15 27 39 39 34 37 43 48 47 45 42 33 27 24 25 27 29 27 29 30 28 29 32 31 28 27 25 25 27 28 26 25 24
30 20 42 35 32 28 34 36 35 27 20 28 30 44 43 46 44 43 44 43 42 39 33 27 27 28 27 25 24 26 27 28 25 25 26 24 24 24 25 24 23 23 20 18
16 26 16 26 36 31 28 25 19 22 24 27 33 29 44 51 51 49 47 45 43 37 33 33 32 31 36 32 30 28 27 25 24 21 23 22 22 22 22 22 22 18 17 18
17 4 30 22 16 19 34 32 21 22 28 24 29 15 69 47 55 52 47 46 41 37 39 37 34 26 21 24 23 25 24 24 23 21 20 20 22 21 19 20 17 17 19 19
28 22 12 12 13 16 11 14 15 20 22 13 28 20 59 44 49 42 38 35 30 30 27 26 25 21 19 20 20 19 21 23 22 22 20 20 19 18 20 19 18 18 16 17
17 21 17 17 15 17 16 9 4 4 6 11 14 21 52 4 6 13 10 7 8 12 18 20 19 23 22 22 21 20 19 18 20 20 20 19 17 19 19 17 15 14 16 16
7 5 13 11 18 17 17 21 7 6 4 9 20 21 44 28 29 23 22 14 16 16 17 18 18 20 17 20 19 19 18 18 18 18 18 17 17 18 15 13 13 14 14 13
4 6 9 13 7 10 11 21 24 11 17 5 16 37 52 15 18 43 40 18 11 12 16 20 20 21 21 21 20 18 18 19 19 17 15 15 18 15 14 13 14 14 12 11
3 5 8 10 11 14 15 11 14 16 5 5 10 23 29 9 34 25 18 24 18 23 20 19 21 18 19 19 21 17 17 18 16 15 14 16 15 14 13 13 14 12 11 10
4 5 6 9 7 9 12 18 14 13 23 4 3 10 20 22 10 11 15 15 19 15 18 18 16 16 14 19 19 16 17 17 15 13 14 15 14 14 13 13 12 11 10 9
8 6 9 20 18 14 15 17 18 23 14 34 14 18 12 6 17 22 17 18 21 9 6 9 12 15 16 17 16 16 16 16 14 13 15 13 13 11 12 10 10 11 8 8
5 3 7 7 3 5 12 21 25 23 20 28 16 16 15 24 22 18 15 14 15 9 8 11 14 16 15 14 17 18 17 15 12 13 12 11 10 11 10 9 9 8 6 7
14 12 18 10 13 13 21 11 15 17 23 32 43 40 40 25 21 19 16 18 16 13 16 16 15 18 16 16 16 18 16 13 12 12 11 9 10 10 8 6 6 8 7 7
13 19 16 20 24 20 25 23 26 22 26 19 39 43 37 49 42 34 22 17 18 12 23 20 17 18 16 15 17 18 15 12 11 10 8 10 10 9 6 2 4 7 7 6
17 19 16 18 22 20 27 34 30 31 28 32 32 49 36 40 41 28 24 18 19 18 26 23 19 18 16 17 16 17 14 12 10 8 10 10 9 8 2 1 3 5 6 6
18 14 9 9 10 19 24 28 32 32 35 35 35 37 34 37 29 25 25 20 15 21 28 23 18 16 17 16 16 14 12 10 9 10 10 9 8 5 3 1 2 4 6 7
24 13 14 16 17 6 6 7 17 30 31 36 30 23 35 37 29 24 26 19 20 25 31 23 17 18 18 17 17 15 13 11 12 11 8 9 7 7 4 2 2 5 5 8
19 21 11 7 8 21 16 8 4 6 28 30 24 22 36 35 32 28 21 22 23 23 30 20 18 19 17 16 15 14 13 14 14 10 8 7 7 7 6 3 2 3 4 7
12 19 23 10 5 4 2 7 8 13 15 21 18 23 33 27 36 30 24 30 22 30 28 21 22 18 16 16 16 14 14 15 14 9 8 8 7 7 6 5 3 1 1 6
2 12 26 29 14 11 18 17 13 12 8 12 21 21 22 25 28 27 26 29 23 26 22 23 22 15 14 17 16 15 13 16 14 11 10 8 8 7 5 5 4 4 3 3
10 4 4 8 6 6 19 9 13 2 11 11 19 13 19 25 24 24 25 31 30 32 26 25 21 16 16 17 15 13 13 17 14 12 11 9 8 8 6 4 2 3 4 4
9 12 11 10 13 25 27 8 13 6 13 17 21 17 18 15 29 22 27 29 29 32 31 24 20 16 15 15 13 11 12 15 15 14 13 10 8 7 5 5 3 3 2 2
16 18 17 17 25 35 16 17 8 14 15 23 23 21 16 12 16 31 24 30 35 36 32 26 21 17 14 15 13 11 9 12 15 15 14 12 10 8 7 6 5 5 5 7
17 21 24 23 29 25 19 18 15 4 11 22 25 21 16 15 15 22 31 38 33 36 33 27 18 16 12 11 13 12 10 12 16 16 15 13 11 10 9 8 6 7 7 8
18 22 26 30 34 29 19 8 13 6 13 32 36 24 18 17 22 29 34 34 33 32 31 27 21 16 14 12 11 12 11 12 14 14 14 13 12 10 10 10 10 9 8 11

GFSCGP_700_spd_048.txt.gz
Wind_Speed
29 37 48 59 61 51 20 35 24 30 27 27 39 51 50 46 46 52 54 54 56 57 53 52 52 46 32 25 25 26 28 25 25 28 26 25 28 24 25 26 24 24 26 25
24 43 46 41 44 46 36 21 21 26 11 27 33 43 42 41 47 52 52 51 53 52 50 49 46 37 28 25 22 18 22 23 26 28 25 24 28 27 28 28 24 22 23 24
14 19 37 33 29 31 36 33 24 15 13 28 25 40 40 41 42 43 46 47 47 43 40 35 31 29 30 28 24 23 19 24 25 27 20 24 24 25 27 22 18 21 22 22
15 27 17 27 26 24 21 19 20 22 20 21 24 21 40 49 52 52 50 48 46 44 38 30 28 28 29 27 27 27 25 25 23 26 24 22 21 24 21 19 20 20 20 21
12 4 27 23 12 27 29 19 13 14 16 18 23 13 46 40 50 51 46 44 42 41 36 32 30 28 30 26 22 19 23 22 22 24 24 22 22 20 20 18 18 20 21 19
22 20 11 7 16 12 12 18 16 19 16 9 23 16 49 45 50 46 37 36 34 31 28 27 28 31 27 27 19 16 19 19 21 22 21 21 21 19 18 18 19 20 18 18
25 21 26 20 11 13 14 16 4 4 6 11 11 18 47 5 3 3 10 8 7 5 13 16 19 18 19 22 17 17 19 19 16 16 18 20 18 18 17 19 20 18 16 16
10 7 17 16 17 14 17 18 7 6 4 5 16 18 30 26 42 19 10 8 3 6 5 10 12 17 21 21 19 17 18 17 14 15 15 16 17 15 17 19 18 15 15 14
5 3 7 12 8 17 16 20 24 4 5 2 11 31 47 32 23 17 30 27 18 20 15 11 18 22 22 22 18 19 18 17 15 14 15 16 15 16 18 17 15 14 12 13
4 4 3 9 7 10 9 18 15 9 4 4 7 18 21 2 5 24 25 17 16 19 15 15 21 22 22 20 22 18 19 17 14 14 15 15 15 17 17 15 13 11 11 11
5 5 7 6 10 13 13 17 11 13 19 4 2 6 7 7 15 8 10 13 15 11 12 18 19 18 21 19 17 17 19 16 13 15 14 14 16 17 15 13 10 10 10 9
5 6 9 15 12 14 17 15 14 15 14 26 13 12 7 5 10 13 14 8 8 9 4 8 10 12 13 15 16 16 16 14 14 14 13 14 16 14 12 9 9 9 9 7
8 5 5 5 2 7 12 18 20 21 17 26 12 13 24 15 9 10 9 7 4 5 10 11 9 12 13 13 15 15 13 13 14 13 12 14 13 11 9 8 7 9 8 5
14 15 14 9 7 5 10 13 13 16 19 25 43 34 39 26 17 20 11 10 8 6 6 11 12 12 14 13 12 14 15 16 13 11 13 12 10 9 6 6 8 9 8 5
15 16 17 20 18 17 21 23 22 25 31 20 42 35 32 50 44 35 31 24 12 12 2 12 16 15 15 12 14 14 16 14 12 12 10 10 8 6 6 6 7 8 7 6
14 13 13 26 21 21 23 26 29 32 35 48 46 50 40 37 51 50 45 32 17 14 8 15 20 20 15 13 13 15 15 13 12 11 10 9 5 6 7 6 6 6 6 7
15 15 10 10 13 12 17 26 25 35 45 48 53 47 40 34 44 46 37 25 19 15 11 16 20 21 16 13 13 15 15 12 12 10 10 7 7 8 7 5 4 4 5 6
23 20 15 13 12 5 10 11 20 25 29 45 47 41 36 28 33 36 33 26 19 16 10 16 21 22 17 15 17 18 16 12 12 10 8 7 9 10 7 4 2 3 3 7
17 20 10 6 7 20 19 6 8 11 23 22 31 31 35 30 29 33 28 28 19 13 7 18 23 21 17 18 19 17 14 14 11 10 6 8 11 11 7 5 3 2 1 6
10 17 24 10 7 4 5 18 23 14 17 19 22 24 26 30 31 24 21 22 20 11 8 22 22 20 19 20 17 15 14 13 12 9 7 10 10 9 7 4 3 2 2 2
4 11 32 30 11 8 6 24 19 12 7 11 21 23 25 30 22 23 26 25 20 9 13 25 22 21 19 17 16 15 14 13 13 10 9 10 10 8 6 5 4 3 3 3
12 9 5 7 8 3 31 29 8 10 14 9 22 24 24 16 25 22 25 22 17 7 25 27 23 22 18 16 16 15 14 15 14 11 10 10 10 7 5 3 3 4 3 5
7 15 15 11 17 26 39 19 25 14 3 13 20 22 17 21 28 21 24 20 14 22 31 27 26 20 17 17 16 15 15 15 13 12 11 10 9 6 4 3 3 2 2 6
17 21 20 23 29 37 20 26 22 16 5 14 19 23 21 23 29 26 20 18 19 32 30 28 27 22 16 19 18 15 12 14 13 13 13 11 10 7 5 3 2 3 3 5
19 23 27 27 34 38 32 23 23 4 7 20 17 24 17 19 24 27 21 11 20 26 35 27 26 23 16 18 17 15 14 13 14 14 14 12 10 8 5 4 4 6 5 6
19 25 28 34 34 31 29 20 19 13 14 17 25 12 14 14 13 20 17 20 23 32 29 30 28 24 17 14 16 15 14 14 14 15 15 13 10 8 6 4 3 7 6 8